Location: Puketoi
(40.5833°S, 176.0167°E)
Time: 13:34:35
(UTC+00:00)

ATLAS 5 CENTAUR R/B - Pass Details

Date: 08 February 2023
Orbit: 460 x 1178 km, 63.3° (Epoch: 19 March)

Event Time Altitude Azimuth Distance (km) Brightness Sun altitude
Exits shadow 12:25:31 24° 95° (E) 2,226 4.3 -34.4°
Drops below altitude 10° 12:29:19 10° 123° (ESE) 3,020 5.4 -34.4°
Sets 12:32:22 0° 134° (SE) 3,909 6.2 -34.4°
